Temperature
27 26 26 26 28 29 30 30 31 31 30 30 29 29 27 27 26 24 23 22 21 20 21 20 20 19 19 19 19 19 19 19 19 19 18 18 18 18 18 18 18 18 18 18 18 18 18 18 18
27 26 27 29 28 29 29 31 30 31 30 30 29 28 27 26 25 24 23 22 21 20 20 20 20 19 19 19 19 19 19 19 19 18 18 18 18 18 18 18 18 18 18 18 18 18 18 18 18
27 27 29 30 29 30 30 31 31 31 31 30 28 27 26 26 25 24 23 22 21 20 20 20 20 19 19 19 19 19 19 19 18 18 18 18 18 18 18 18 18 18 18 18 18 18 18 18 18
27 30 31 31 31 31 31 32 32 31 31 30 28 27 25 25 24 23 23 22 21 20 20 20 20 19 19 19 19 19 19 18 18 18 18 18 18 18 18 18 18 18 18 18 18 18 18 18 18
29 30 30 30 32 32 33 32 32 31 31 29 27 26 25 24 24 23 23 22 21 20 20 20 20 19 19 19 19 19 19 18 18 18 18 18 18 18 18 18 18 18 18 18 18 18 18 18 18
30 31 30 30 32 33 33 32 32 31 30 29 27 26 25 24 24 23 23 22 22 20 20 21 20 20 19 19 19 19 18 18 18 18 18 18 18 18 18 18 18 18 18 18 18 18 18 18 18
31 31 30 32 32 32 33 32 32 31 31 30 28 26 25 24 24 24 23 23 22 21 20 20 20 20 20 19 19 19 19 18 18 18 18 18 18 18 18 18 18 18 18 18 18 18 18 18 18
32 32 31 32 32 32 33 32 32 31 30 30 29 27 25 24 24 24 23 23 22 21 20 20 19 20 19 19 19 19 19 19 19 19 18 18 18 18 18 18 18 18 18 18 18 18 18 18 18
33 31 31 33 33 33 33 32 31 30 30 29 29 27 25 24 24 24 23 23 22 21 21 20 19 19 19 19 19 19 19 19 19 18 18 18 18 18 18 18 18 18 18 18 18 18 18 18 18
34 32 33 34 34 34 33 33 31 30 29 28 27 26 24 24 24 24 23 23 22 22 21 21 20 20 19 19 19 19 18 18 18 18 18 18 18 18 18 18 18 18 18 18 18 18 18 18 18
34 33 34 35 34 34 34 33 32 31 29 28 26 25 24 24 24 24 24 23 22 22 21 21 20 20 20 19 19 19 18 18 18 18 18 18 18 18 18 18 18 18 18 18 18 18 18 18 18
35 35 34 34 34 34 34 33 32 31 30 28 27 26 25 24 24 24 24 23 22 22 22 21 20 20 20 20 19 19 19 19 18 18 18 18 18 18 18 18 18 18 18 18 18 18 18 18 18
34 35 35 34 34 33 33 32 32 31 30 28 27 26 25 25 25 24 24 23 22 22 21 21 20 20 20 20 19 19 19 19 19 19 18 18 18 18 18 18 18 18 18 18 18 18 18 18 18
35 35 35 34 34 33 32 32 31 31 30 28 27 26 26 25 25 24 23 22 22 21 21 21 20 20 20 20 19 19 19 19 19 19 18 18 18 18 18 18 18 18 18 18 18 18 18 18 18
34 34 34 35 34 33 31 30 30 30 30 29 28 27 26 26 25 24 23 22 22 21 21 21 20 20 20 19 19 19 19 19 19 19 18 18 18 18 18 18 18 18 18 18 18 18 18 18 18
34 33 32 34 34 33 31 28 30 30 30 29 28 27 27 26 25 24 23 23 22 21 21 21 20 20 20 19 19 19 19 19 19 19 18 18 18 18 18 18 18 18 18 18 18 18 18 18 18
33 32 32 32 34 34 32 29 30 30 30 30 29 28 27 26 25 24 23 23 22 21 21 21 20 20 20 20 19 19 19 19 19 19 18 18 18 18 18 18 18 18 18 18 18 18 18 18 18
33 33 33 32 34 34 33 31 31 31 31 30 29 28 27 26 25 24 24 23 22 21 21 21 20 20 20 20 19 19 19 19 19 19 19 18 18 18 18 18 18 18 18 18 18 18 18 18 18
33 33 33 33 34 34 33 32 32 32 31 30 30 29 28 26 26 25 24 23 22 21 21 21 21 20 20 20 19 19 19 19 19 19 19 19 18 18 18 18 18 18 18 18 18 18 18 18 18
33 33 33 33 34 34 33 32 33 32 32 31 30 29 28 27 26 25 24 23 22 21 21 21 21 20 20 20 19 19 19 19 19 19 19 19 18 18 18 18 18 18 18 18 18 18 18 18 18
33 33 33 33 34 34 33 32 31 31 31 31 31 29 29 27 26 24 24 23 22 21 21 21 21 20 20 20 19 19 19 19 19 19 19 19 18 18 18 18 18 18 18 18 18 18 18 18 18
32 34 34 33 33 32 33 30 29 30 30 31 31 30 29 28 26 25 24 23 22 21 21 21 21 20 20 20 19 19 19 19 19 19 19 19 18 18 18 18 18 18 18 18 18 18 18 18 18
33 34 34 33 33 32 33 31 29 29 29 30 31 31 29 28 27 25 24 23 23 22 21 21 21 20 20 20 19 19 19 19 19 19 19 18 18 18 18 18 18 18 18 18 18 18 18 18 18
34 33 33 33 32 31 32 31 29 29 30 30 31 30 29 28 27 26 24 23 23 22 21 20 20 20 20 20 19 19 19 19 19 18 18 18 18 18 18 18 18 18 18 18 18 18 18 18 18
33 31 30 30 30 30 31 31 30 31 32 32 31 30 29 28 27 25 24 23 23 22 21 21 20 20 20 20 19 19 19 19 19 19 18 18 18 18 18 18 18 18 18 18 18 18 18 18 18
32 32 30 29 30 30 30 30 31 33 32 32 31 30 29 27 26 25 24 23 22 22 21 21 20 20 20 19 19 19 19 19 18 18 18 18 18 18 18 18 18 18 18 18 18 18 17 17 17
32 32 33 32 31 30 30 30 30 32 32 32 31 30 29 28 26 25 24 23 22 22 21 20 20 20 19 19 19 19 19 18 18 18 18 18 18 18 18 18 18 18 18 18 18 17 17 17 17
33 33 32 31 30 29 30 30 30 30 32 32 31 30 29 27 26 25 24 23 22 21 21 20 20 20 19 19 19 18 18 18 18 18 18 18 18 18 18 18 18 17 17 17 17 17 17 17 17
32 32 32 31 31 30 29 28 31 31 32 32 31 30 28 27 26 25 24 23 22 21 21 20 20 19 19 19 18 18 18 18 18 18 18 18 18 18 17 17 17 17 17 17 17 17 16 16 16
33 32 32 30 30 31 30 29 32 32 32 32 30 29 28 27 26 24 24 22 22 21 20 20 19 19 18 18 18 18 18 18 18 17 17 17 17 17 17 17 17 17 16 16 16 16 16 16 16
Wind_Speed
12 13 11 6 2 3 15 15 16 16 16 15 16 15 17 16 13 14 14 20 22 19 18 17 16 16 15 15 14 14 14 14 14 14 15 15 15 16 16 16 16 17 17 17 17 17 17 17 16
12 13 8 3 1 9 14 14 15 15 14 15 18 19 19 18 18 17 17 18 20 19 18 17 16 16 15 15 14 14 14 14 14 14 14 14 15 15 15 16 16 16 16 16 16 16 16 15 14
13 15 6 1 7 12 14 14 14 13 13 15 18 18 14 14 17 16 17 19 20 19 19 18 16 15 15 14 14 14 14 14 13 14 14 14 14 14 15 15 15 15 15 15 15 15 14 14 12
9 6 2 3 14 15 13 12 12 13 13 16 16 13 13 13 16 18 19 19 20 19 19 18 16 15 15 14 14 14 13 13 13 13 13 13 14 14 15 15 15 15 14 14 14 14 13 12 10
8 2 1 6 15 15 14 14 14 13 15 19 19 17 15 16 19 18 16 17 18 19 19 17 16 15 14 14 13 13 13 12 12 12 12 12 13 14 14 14 14 14 13 13 12 12 12 10 8
4 2 1 7 14 14 13 14 14 14 15 18 19 18 14 15 16 15 15 15 18 19 19 17 16 15 14 13 12 12 12 11 12 12 12 12 12 13 13 13 13 13 12 12 11 11 11 9 6
6 1 1 9 12 13 13 13 13 13 13 15 17 16 13 14 14 15 14 13 16 19 17 16 16 14 14 13 12 12 11 11 11 11 11 11 12 12 13 12 12 12 11 11 10 10 9 7 4
3 2 2 8 10 13 13 13 13 14 12 11 12 12 15 15 14 14 13 13 14 15 16 15 15 15 14 12 11 11 11 11 10 10 10 11 11 12 12 12 11 10 10 9 9 9 8 6 3
3 1 3 8 11 12 13 13 14 12 12 12 14 18 19 18 16 15 13 12 11 12 12 13 13 13 13 13 13 11 11 10 10 9 10 10 10 11 10 12 11 9 9 8 8 8 7 6 4
1 2 7 9 10 10 11 11 12 11 10 14 18 20 19 16 14 13 13 13 11 11 11 10 10 10 11 11 12 10 9 10 8 8 9 8 6 9 11 12 11 9 8 8 8 8 7 7 6
3 4 7 8 9 7 8 10 10 12 12 14 18 20 18 16 14 13 12 12 11 9 10 11 9 6 7 8 9 7 7 9 7 7 7 7 7 8 10 9 9 9 9 8 8 9 8 7 4
1 4 4 5 6 5 7 9 10 11 14 17 19 20 17 16 14 13 12 13 11 8 9 10 9 5 4 5 5 6 6 6 6 7 6 6 3 3 5 5 8 8 7 6 6 5 5 3 2
2 1 2 3 3 6 7 8 9 13 16 19 19 18 17 15 14 12 12 12 11 8 8 9 8 6 4 3 0 4 4 6 7 7 4 5 4 3 4 2 3 4 6 6 3 2 3 2 2
2 2 1 2 4 6 7 5 6 10 16 18 18 16 15 14 14 13 12 11 11 9 8 8 8 7 4 2 0 1 3 4 6 7 6 4 3 4 3 2 1 2 4 4 3 3 2 2 2
5 6 6 4 4 7 8 3 3 8 13 16 16 15 14 13 13 13 13 11 11 9 8 8 8 8 6 5 4 3 4 5 4 5 7 5 4 4 3 2 2 2 3 4 3 3 3 2 3
9 9 6 3 3 8 8 3 5 8 12 14 14 14 13 12 13 13 13 11 11 10 9 8 8 9 7 4 3 2 2 4 4 5 6 6 6 6 4 3 3 3 3 3 2 2 2 2 1
11 9 6 6 5 5 5 7 8 9 10 12 13 14 14 13 13 13 14 12 10 10 10 8 6 9 8 6 4 3 1 1 2 4 5 7 7 7 5 3 2 4 3 3 3 2 1 1 1
8 5 6 7 5 4 4 8 10 10 10 11 13 14 14 14 12 13 13 13 11 10 9 9 6 7 7 6 4 3 3 2 3 3 5 6 7 8 6 3 3 3 2 2 1 1 1 1 2
10 7 3 3 3 3 4 6 10 9 9 12 13 14 15 15 14 13 13 13 12 10 10 9 8 7 6 5 5 5 4 4 4 4 6 7 7 7 5 3 3 3 2 3 3 2 3 3 3
11 10 5 4 5 4 5 4 7 8 8 10 12 13 13 15 14 13 12 13 13 11 10 9 9 9 8 6 4 3 3 3 4 3 4 7 7 7 7 5 4 4 2 3 3 3 2 3 3
11 11 7 5 4 6 8 6 3 5 5 8 11 14 15 16 16 15 13 12 12 11 10 9 8 8 8 7 5 3 3 2 2 3 4 5 7 8 7 6 4 3 4 4 4 4 5 4 4
11 10 8 7 8 8 8 5 5 6 8 9 11 13 14 14 15 15 14 12 11 11 10 8 8 7 6 6 6 6 5 4 4 3 3 4 6 7 7 6 5 4 4 4 6 6 5 5 5
11 6 8 11 11 11 10 5 5 7 8 9 10 12 13 13 13 14 14 12 10 10 10 8 7 7 6 5 5 4 4 4 3 3 3 3 4 5 6 6 5 6 5 6 6 4 6 5 6
10 8 9 11 11 12 11 7 5 8 10 8 10 11 11 12 12 12 12 11 9 9 8 8 8 7 6 6 5 5 4 3 3 3 2 3 3 4 5 6 5 5 5 6 6 6 6 6 6
11 10 7 8 9 9 8 7 5 8 8 7 8 10 11 11 12 12 12 11 9 9 8 8 8 6 6 6 5 4 4 4 3 3 3 3 3 3 4 5 4 5 5 6 6 6 6 6 6
14 15 11 9 6 4 4 4 4 8 9 8 8 11 12 12 10 11 12 11 9 9 8 7 7 6 6 5 5 4 3 3 3 3 3 2 2 2 2 3 3 3 4 5 4 4 5 5 5
15 15 17 15 14 8 5 4 5 7 10 9 10 11 11 12 12 11 11 11 9 8 8 7 7 6 5 4 4 3 2 2 2 1 1 1 2 2 0 1 2 2 2 3 3 3 3 3 4
16 14 11 11 9 9 5 6 5 10 10 11 10 10 11 12 11 12 12 11 10 8 7 7 7 6 4 4 3 3 2 2 1 0 0 1 1 2 2 2 1 1 1 1 1 2 2 2 3
16 15 11 9 9 10 5 1 1 8 8 10 11 10 11 11 11 11 11 11 10 9 9 8 7 6 4 3 3 3 3 2 2 2 2 2 2 2 2 2 2 2 1 1 1 1 2 3 3
16 16 14 9 8 10 8 2 3 4 7 10 11 11 10 10 11 12 12 11 10 9 9 8 7 6 5 4 5 4 4 4 3 3 3 3 3 3 2 2 2 2 2 2 1 1 1 1 1
Wind_Direction
274 261 243 258 290 65 69 65 66 67 66 60 58 69 65 61 80 97 114 110 110 112 114 109 106 105 103 102 101 98 95 93 93 91 90 90 92 92 93 94 95 94 93 92 91 90 90 91 92
284 277 261 251 65 73 72 70 70 72 77 78 71 73 74 75 89 104 109 112 115 117 115 109 109 108 106 104 103 102 99 96 95 95 94 93 94 94 96 96 96 96 94 93 93 92 92 93 95
273 266 268 200 71 73 76 77 79 77 82 84 77 69 74 89 99 108 115 116 109 107 108 111 111 110 108 106 104 102 100 99 98 97 96 96 96 97 97 98 97 97 96 95 94 94 95 95 97
275 278 281 76 82 79 80 85 89 84 80 86 86 81 79 91 106 116 121 116 114 116 114 115 114 111 110 108 105 104 102 102 101 100 99 99 99 100 100 100 99 98 97 96 96 96 97 97 98
270 292 44 77 83 85 83 84 83 78 80 83 88 93 92 97 110 118 120 121 121 116 117 120 117 114 112 111 108 107 105 105 105 104 103 102 102 103 102 100 100 100 98 97 98 98 99 100 99
296 322 42 90 86 85 82 82 88 85 90 100 103 102 101 112 117 123 121 122 121 119 119 121 121 118 116 114 113 111 111 110 109 108 108 108 107 107 106 105 104 102 100 99 101 103 104 105 102
262 321 250 98 93 90 88 84 85 87 88 96 108 110 122 129 128 125 123 123 119 120 126 133 132 126 122 119 119 117 116 115 115 116 118 119 118 116 114 111 109 107 106 105 106 110 111 115 119
314 360 38 95 94 94 94 88 88 90 88 102 117 121 135 136 135 125 124 120 120 127 132 137 138 137 137 131 128 125 125 126 127 130 133 133 132 128 128 121 117 115 115 115 117 121 125 132 152
311 16 47 79 92 99 99 96 93 91 91 77 86 118 132 140 136 133 131 123 121 124 129 136 136 144 145 140 138 141 140 141 144 148 153 156 155 146 143 124 129 130 130 132 135 139 147 157 186
348 62 71 64 78 93 102 108 114 110 97 93 100 116 130 138 139 143 141 137 129 129 130 129 131 142 148 137 145 155 152 154 171 158 169 178 160 147 134 138 145 148 151 156 164 165 171 189 192
62 59 64 76 74 83 101 103 109 119 120 124 128 134 141 144 149 150 147 138 131 139 135 130 124 141 138 130 152 155 146 155 166 158 172 165 155 146 140 153 159 169 173 181 173 186 199 208 202
10 76 65 70 82 92 93 90 96 105 115 128 135 140 146 154 158 157 149 139 141 150 139 133 131 130 103 118 142 149 146 153 155 164 185 152 143 140 144 161 171 178 181 181 185 196 179 171 186
257 31 93 102 113 80 75 82 89 99 113 124 134 144 153 160 157 153 146 141 143 151 143 125 125 114 103 80 74 146 143 149 153 158 175 162 159 155 138 149 188 189 160 169 199 158 139 143 187
323 316 254 172 116 115 102 88 105 116 124 132 141 150 159 158 155 150 148 145 150 161 148 133 135 132 136 146 1 91 141 140 155 158 164 184 151 133 147 165 221 209 158 154 175 162 153 183 205
273 259 245 196 162 120 91 81 132 143 139 143 148 155 158 157 155 154 154 153 156 160 148 145 152 149 166 177 195 192 188 167 160 149 159 182 161 148 170 174 208 205 163 150 171 185 190 204 194
247 241 241 214 173 131 130 142 176 179 158 151 153 157 157 157 160 157 152 155 158 159 153 165 177 160 167 193 207 225 205 152 152 156 166 186 172 178 199 187 197 185 175 178 187 205 201 183 177
240 227 199 205 194 166 158 155 179 189 169 156 160 161 162 164 164 157 155 161 158 154 154 168 182 157 167 186 200 233 205 155 166 164 174 187 187 190 201 201 182 190 193 200 210 169 194 197 197
263 232 192 201 186 206 170 151 164 191 171 165 170 169 166 167 169 163 161 162 157 155 158 169 178 160 167 174 189 221 220 194 198 191 180 182 196 199 208 200 181 209 206 185 202 153 210 231 230
285 288 242 172 184 237 211 175 168 181 183 173 173 173 172 171 171 164 164 165 163 161 166 171 178 170 179 188 191 198 206 209 211 207 192 193 205 200 207 222 176 207 219 197 198 206 221 234 236
273 275 255 210 205 251 251 218 174 175 193 176 172 170 174 166 164 162 168 170 168 169 173 176 183 179 188 195 204 201 203 215 214 215 185 200 203 204 205 206 208 200 212 224 226 219 243 253 232
255 263 263 261 238 240 250 238 182 177 198 194 180 173 175 171 168 168 174 173 171 173 180 185 183 179 189 189 188 204 189 224 227 210 197 203 205 211 216 201 213 199 210 213 219 217 221 241 253
249 256 273 278 265 263 253 242 190 194 206 207 189 173 169 173 169 170 175 177 178 176 178 177 173 175 182 188 195 195 197 209 221 218 198 198 210 217 216 208 210 215 223 212 220 219 223 229 247
251 277 269 269 268 271 267 249 192 185 208 211 186 167 164 168 171 169 173 172 175 175 174 171 169 178 182 192 202 203 213 212 216 208 182 198 210 222 223 216 211 209 224 225 226 225 223 225 234
248 258 260 259 264 261 262 258 176 183 189 185 166 156 156 160 161 160 163 161 169 168 164 162 164 174 178 190 201 204 215 217 222 224 194 206 214 215 220 223 216 211 221 229 229 227 228 232 241
228 238 239 237 237 249 264 259 158 169 163 153 160 153 148 147 148 150 153 157 161 160 160 157 161 166 175 187 198 205 215 218 221 238 228 232 234 221 222 228 216 219 222 227 226 223 235 232 232
218 232 242 254 253 256 253 259 143 127 123 130 146 139 138 143 146 151 153 152 155 158 153 152 156 163 173 181 188 196 205 219 227 229 240 244 265 254 227 222 223 228 232 238 226 226 227 229 229
223 230 248 263 277 273 214 185 154 150 143 142 141 141 144 146 151 155 150 148 151 154 149 150 147 149 158 163 162 166 186 221 244 220 230 273 289 292 311 220 237 249 250 254 244 231 233 228 231
241 234 245 256 272 278 241 213 179 165 160 151 146 145 142 147 153 147 145 145 144 151 142 136 134 133 133 135 148 161 165 175 160 70 54 345 5 357 1 5 352 314 301 283 253 257 240 229 241
225 236 247 263 266 275 272 9 114 169 161 150 147 146 143 145 144 142 137 138 140 142 136 131 130 128 127 129 123 108 110 106 92 74 55 47 39 31 22 19 15 359 357 347 289 263 256 247 254
229 230 235 244 259 276 280 184 148 160 149 139 134 127 126 131 133 134 131 132 135 132 130 129 129 130 127 120 115 105 101 96 88 78 64 59 55 46 40 35 30 16 17 28 24 342 338 307 301
Height
1483 1482 1483 1485 1485 1485 1487 1483 1479 1481 1484 1487 1489 1491 1497 1499 1506 1521 1524 1525 1527 1528 1530 1532 1534 1535 1536 1538 1539 1540 1541 1542 1542 1543 1544 1544 1545 1546 1547 1548 1548 1549 1550 1551 1552 1552 1553 1554 1555
1483 1484 1486 1484 1488 1495 1494 1484 1484 1485 1488 1490 1493 1497 1501 1507 1512 1519 1524 1527 1529 1531 1532 1534 1536 1537 1539 1540 1541 1542 1543 1544 1545 1546 1546 1547 1548 1548 1549 1550 1551 1552 1553 1554 1554 1555 1556 1557 1558
1484 1485 1486 1482 1486 1492 1493 1485 1485 1487 1489 1492 1497 1503 1508 1513 1517 1522 1526 1529 1531 1532 1534 1536 1538 1539 1541 1542 1543 1544 1545 1546 1547 1548 1549 1550 1550 1551 1552 1553 1554 1554 1555 1556 1557 1557 1558 1559 1560
1487 1486 1483 1481 1486 1483 1483 1484 1485 1488 1490 1494 1499 1508 1514 1517 1520 1525 1528 1531 1533 1534 1536 1538 1540 1541 1543 1544 1546 1547 1548 1549 1549 1550 1551 1552 1553 1554 1555 1555 1556 1557 1558 1559 1559 1560 1561 1562 1563
1489 1486 1486 1486 1483 1480 1481 1484 1487 1489 1492 1498 1504 1512 1518 1522 1524 1527 1530 1533 1535 1537 1538 1540 1542 1543 1545 1546 1548 1549 1550 1551 1552 1552 1553 1554 1555 1556 1557 1558 1559 1559 1560 1561 1562 1563 1563 1564 1566
1488 1485 1492 1493 1486 1481 1482 1486 1489 1492 1496 1501 1507 1514 1521 1525 1527 1530 1532 1535 1537 1538 1540 1542 1544 1545 1547 1548 1550 1551 1552 1553 1554 1555 1556 1557 1558 1558 1559 1560 1561 1562 1563 1563 1564 1565 1566 1567 1568
1488 1487 1490 1485 1485 1484 1484 1487 1490 1494 1497 1501 1507 1514 1522 1527 1529 1532 1534 1537 1539 1540 1541 1543 1545 1547 1549 1550 1551 1553 1554 1555 1556 1557 1558 1559 1560 1561 1561 1562 1563 1564 1565 1566 1566 1567 1568 1569 1570
1484 1485 1486 1483 1485 1486 1485 1488 1492 1497 1500 1504 1506 1513 1522 1527 1530 1533 1536 1539 1541 1543 1544 1545 1547 1548 1550 1552 1553 1554 1555 1556 1558 1559 1560 1561 1562 1563 1563 1564 1565 1566 1567 1568 1569 1569 1570 1571 1573
1483 1488 1491 1483 1482 1484 1485 1490 1495 1499 1502 1505 1506 1513 1521 1527 1531 1534 1537 1540 1542 1545 1546 1548 1549 1550 1552 1553 1554 1556 1557 1558 1559 1561 1561 1562 1563 1564 1565 1566 1567 1568 1569 1570 1571 1572 1573 1574 1575
1482 1488 1484 1478 1478 1481 1485 1490 1494 1500 1505 1509 1513 1518 1523 1527 1531 1535 1538 1541 1543 1546 1548 1549 1551 1553 1554 1556 1556 1557 1558 1559 1561 1562 1563 1564 1565 1566 1567 1568 1569 1570 1571 1572 1573 1574 1574 1575 1576
1481 1483 1480 1480 1481 1484 1486 1489 1493 1497 1504 1510 1515 1520 1524 1528 1532 1535 1538 1541 1544 1546 1548 1550 1551 1554 1556 1557 1557 1559 1560 1560 1562 1563 1564 1566 1567 1568 1568 1569 1570 1571 1572 1573 1574 1575 1575 1577 1578
1481 1480 1482 1482 1484 1485 1487 1490 1494 1497 1503 1509 1515 1520 1524 1528 1532 1535 1538 1541 1544 1547 1549 1550 1552 1554 1556 1557 1558 1559 1560 1561 1562 1563 1565 1566 1568 1568 1569 1570 1571 1572 1573 1574 1575 1576 1577 1578 1580
1482 1481 1482 1483 1485 1487 1489 1492 1497 1500 1505 1510 1516 1521 1525 1528 1531 1535 1538 1541 1543 1546 1549 1550 1551 1553 1554 1556 1558 1559 1561 1561 1562 1563 1565 1566 1568 1569 1570 1570 1572 1573 1574 1575 1576 1577 1578 1579 1580
1482 1482 1482 1483 1485 1488 1492 1497 1499 1503 1506 1512 1516 1521 1524 1528 1531 1534 1538 1540 1543 1546 1548 1549 1551 1552 1554 1556 1557 1558 1560 1561 1563 1564 1565 1566 1567 1568 1570 1570 1571 1573 1574 1575 1576 1577 1578 1579 1580
1484 1484 1483 1482 1484 1488 1494 1503 1502 1504 1507 1511 1516 1520 1524 1528 1531 1534 1537 1540 1542 1545 1547 1548 1550 1551 1553 1555 1557 1558 1559 1561 1563 1563 1564 1566 1567 1568 1569 1570 1571 1572 1574 1574 1575 1576 1577 1578 1579
1483 1486 1492 1484 1483 1487 1497 1513 1504 1504 1507 1510 1515 1519 1523 1527 1530 1533 1536 1539 1541 1543 1545 1547 1550 1550 1552 1554 1556 1558 1559 1561 1562 1562 1564 1565 1566 1567 1568 1569 1570 1571 1573 1574 1575 1576 1577 1578 1579
1486 1491 1494 1489 1481 1483 1491 1505 1501 1501 1505 1508 1513 1518 1522 1526 1529 1532 1535 1537 1539 1541 1543 1546 1548 1549 1551 1553 1554 1556 1558 1559 1560 1561 1562 1563 1565 1566 1567 1568 1569 1570 1572 1573 1574 1575 1576 1576 1577
1490 1486 1488 1490 1481 1482 1487 1494 1497 1499 1501 1506 1510 1515 1520 1524 1528 1531 1533 1536 1538 1540 1542 1544 1546 1548 1549 1551 1553 1554 1556 1558 1559 1560 1561 1562 1563 1564 1565 1567 1568 1569 1571 1572 1573 1574 1574 1575 1576
1481 1484 1487 1484 1479 1483 1486 1489 1491 1494 1498 1502 1506 1512 1517 1521 1526 1529 1532 1535 1537 1539 1540 1542 1544 1546 1547 1549 1551 1552 1554 1555 1557 1558 1559 1560 1561 1562 1563 1565 1567 1568 1569 1570 1571 1572 1573 1574 1575
1484 1486 1486 1483 1478 1482 1486 1488 1487 1492 1495 1498 1503 1509 1513 1518 1523 1527 1530 1533 1535 1537 1538 1540 1542 1544 1545 1547 1549 1551 1552 1554 1555 1556 1556 1557 1559 1560 1562 1563 1564 1566 1567 1568 1569 1570 1571 1572 1573
1487 1486 1484 1485 1479 1479 1485 1493 1492 1490 1494 1497 1500 1504 1509 1514 1519 1524 1528 1531 1533 1535 1537 1539 1540 1542 1544 1545 1547 1549 1550 1552 1553 1553 1554 1555 1556 1558 1559 1561 1562 1564 1565 1566 1567 1568 1569 1570 1571
1490 1479 1479 1482 1488 1490 1486 1508 1500 1492 1495 1495 1497 1501 1506 1511 1516 1521 1525 1529 1531 1533 1535 1537 1539 1540 1542 1543 1545 1546 1547 1549 1550 1551 1552 1553 1554 1556 1557 1558 1560 1561 1562 1563 1564 1565 1566 1567 1568
1483 1477 1480 1482 1487 1491 1486 1500 1503 1495 1498 1494 1493 1497 1502 1508 1513 1518 1522 1526 1530 1532 1534 1535 1537 1538 1540 1541 1543 1544 1546 1547 1548 1549 1550 1551 1552 1553 1554 1556 1557 1558 1559 1560 1561 1562 1563 1564 1565
1479 1481 1483 1484 1488 1504 1492 1497 1507 1495 1493 1491 1490 1495 1500 1506 1511 1516 1521 1525 1528 1531 1532 1534 1534 1536 1538 1539 1541 1542 1544 1545 1546 1547 1548 1549 1550 1551 1551 1553 1554 1555 1556 1557 1558 1558 1559 1560 1561
1482 1494 1507 1510 1510 1508 1488 1492 1494 1482 1481 1485 1489 1494 1499 1505 1510 1515 1520 1523 1526 1529 1531 1532 1533 1534 1536 1537 1539 1540 1542 1543 1544 1545 1546 1547 1548 1548 1549 1550 1550 1551 1552 1553 1554 1555 1556 1557 1558
1484 1489 1507 1517 1514 1508 1496 1498 1487 1476 1479 1484 1489 1493 1499 1505 1510 1514 1518 1522 1525 1528 1530 1531 1532 1533 1534 1535 1536 1538 1540 1541 1542 1543 1544 1545 1545 1546 1546 1547 1547 1548 1549 1549 1550 1551 1552 1553 1554
1482 1485 1480 1490 1494 1503 1500 1494 1486 1477 1480 1484 1488 1493 1499 1504 1509 1513 1517 1520 1524 1527 1529 1530 1531 1532 1533 1534 1535 1537 1539 1540 1541 1541 1542 1543 1543 1544 1544 1544 1544 1544 1545 1546 1546 1547 1548 1549 1549
1473 1476 1482 1493 1507 1513 1505 1498 1495 1485 1482 1483 1488 1493 1498 1504 1508 1513 1516 1519 1523 1526 1528 1530 1531 1532 1533 1534 1535 1537 1538 1539 1539 1540 1540 1541 1541 1542 1542 1542 1542 1542 1542 1542 1543 1543 1544 1545 1546
1478 1480 1482 1485 1489 1504 1512 1509 1481 1480 1479 1481 1487 1492 1498 1502 1508 1512 1516 1520 1523 1526 1528 1529 1530 1532 1533 1534 1535 1537 1537 1538 1538 1538 1539 1539 1539 1540 1540 1540 1540 1540 1540 1540 1540 1541 1541 1541 1542
1470 1475 1480 1496 1497 1491 1499 1503 1477 1478 1478 1481 1487 1493 1498 1502 1507 1512 1516 1520 1523 1525 1527 1529 1530 1532 1533 1534 1535 1536 1537 1537 1538 1538 1538 1538 1538 1538 1538 1538 1538 1538 1538 1538 1538 1538 1538 1538 1539